Tracking 33068 objects as of 24-Jan-2026
HD Live streaming from Space Station
objects crossing your sky now

THOR ABLESTAR DEB

Track THOR ABLESTAR DEB now!
10-day predictions


NORAD ID: 406
Int'l Code: 1961-015EF
Perigee: 925.5 km
Apogee: 1,091.8 km
Inclination: 66.8 °
Period: 105.2 minutes
Semi major axis: 7379 km
RCS: 0.0536 m2 (small)
Launch date: June 29, 1961
Source: United States (US)
Launch site: AIR FORCE EASTERN TEST RANGE (AFETR)

Note: This is SATELLITE DEBRIS
Your satellite tracking list
Your tracking list is empty




NASA's NSSDC Master Catalog

Two Line Element Set (TLE):
1 00406U 61015EF  26024.22085350  .00000900  00000-0  10670-2 0  9997
2 00406  66.7794 332.8079 0112618 134.1952 343.2618 13.69458874201484
Source of the keplerian elements: AFSPC